Home   Weather   Oberlin   Past weeks

Flag for USA Past Weather in Oberlin, Ohio, USA — Yesterday and Last 2 Weeks

Now
63 °F

Partly cloudy.


Feels Like: 63 °F
Forecast: 59 / 67 °F
Wind: 10 mph from East

Location: Cleveland-Hopkins International Airport

Current Time: Sep 29, 2016 at 9:31:13 PM

Latest Report: Sep 29, 2016 at 8:51 PM


Visibility: 10 mi

Pressure: 30.14 "Hg

Humidity: 81%

Dew Point: 57 °F

Location of OberlinLocation

Past Weather in Oberlin — Graph

°F

Oberlin Temperature Yesterday

Maximum temperature yesterday: 65 °F (at 12:51 PM)
Minimum temperature yesterday: 57 °F (at 7:51 AM)
Average temperature yesterday: 61 °F

High & Low Weather Summary for the Past Weeks

 TemperatureHumidityPressure
High89 °F (Sep 23, 3:04 PM)90% (Sep 17, 4:51 AM)30.31 "Hg (Sep 17, 4:51 AM)
Low52 °F (Sep 27, 5:51 AM)24% (Sep 27, 1:51 PM)29.78 "Hg (Sep 27, 4:51 PM)
Average69 °F65%30.08 "Hg
* Reported Sep 14 7:51 PM — Sep 29 7:51 PM, Oberlin, Weather by CustomWeather, © 2016

Note: Actual official high and low records may vary slightly from our data, if they occured in-between our weather recording intervals... More about our weather records

Advertising

Oberlin Weather History for the Previous 24 Hours

Scroll right to see more
 ConditionsComfort  
Time TempWeatherWind HumidityBarometerVisibility
7:51 PM
Thu, Sep 29
63 °FPartly cloudy.13 mph81%30.12 "Hg10 mi
6:51 PM63 °FLight rain. Fog.17 mph87%30.09 "Hg5 mi
5:51 PM63 °FThunderstorms. Fog.14 mph87%30.13 "Hg5 mi
4:51 PM65 °FOvercast.12 mph76%30.14 "Hg10 mi
3:51 PM66 °FMostly cloudy.9 mph78%30.12 "Hg10 mi
2:51 PM62 °FRain. Fog.5 mph86%30.14 "Hg3 mi
1:51 PM64 °FRain. Overcast.12 mph78%30.14 "Hg5 mi
12:51 PM67 °FMore clouds than sun.12 mph73%30.14 "Hg10 mi
11:51 AM68 °FMostly cloudy.9 mph73%30.14 "Hg10 mi
10:51 AM65 °FOvercast.5 mph81%30.13 "Hg10 mi
9:51 AM63 °FMore clouds than sun.6 mph84%30.11 "Hg10 mi
8:51 AM61 °FMostly cloudy.No wind83%30.11 "Hg10 mi
7:51 AM59 °FPartly sunny.3 mph87%30.09 "Hg10 mi
6:51 AM58 °FOvercast.3 mph90%30.07 "Hg10 mi
5:51 AM58 °FOvercast.7 mph90%30.04 "Hg7 mi
4:51 AM58 °FOvercast.3 mph87%30.02 "Hg10 mi
3:51 AM58 °FOvercast.7 mph87%30.01 "Hg10 mi
2:51 AM59 °FOvercast.No wind84%30.00 "Hg10 mi
1:51 AM58 °FPassing clouds.5 mph87%30.00 "Hg10 mi
12:51 AM59 °FMostly cloudy.6 mph87%30.00 "Hg8 mi
11:51 PM
Wed, Sep 28
59 °FMostly cloudy.3 mph87%30.00 "Hg10 mi
10:51 PM59 °FRain. Mostly cloudy.No wind84%30.01 "Hg4 mi
9:51 PM59 °FLight rain. Mostly cloudy.6 mph84%30.01 "Hg6 mi
Weather by CustomWeather, © 2016

See weather overviewHow to use our weather pages